Time,TemperatureF,DewpointF,PressureIn,WindDirection,WindDirectionDegrees,WindSpeedMPH,WindSpeedGustMPH,Humidity,HourlyPrecipIn,Conditions,Clouds,dailyrainin,SoftwareType,DateUTC
2013-02-22 00:05:00,23.5,15.8,30.33,WNW,301,1.0,2.0,72,0.00,,,0.00,Wunderground v.1.15,2013-02-22 05:05:00,
2013-02-22 00:10:00,23.7,15.7,30.32,WNW,301,1.0,2.0,71,0.00,,,0.00,Wunderground v.1.15,2013-02-22 05:10:00,
2013-02-22 00:20:00,24.1,15.7,30.32,WNW,301,2.0,2.0,70,0.00,,,0.00,Wunderground v.1.15,2013-02-22 05:20:00,
2013-02-22 00:35:00,24.4,15.3,30.33,WNW,301,0.0,2.0,68,0.00,,,0.00,Wunderground v.1.15,2013-02-22 05:35:00,
2013-02-22 00:40:00,24.4,15.7,30.34,WNW,301,1.0,2.0,69,0.00,,,0.00,Wunderground v.1.15,2013-02-22 05:40:00,
2013-02-22 00:50:00,24.3,15.9,30.35,WNW,301,1.0,1.0,70,0.00,,,0.00,Wunderground v.1.15,2013-02-22 05:50:00,
2013-02-22 00:55:00,24.3,15.9,30.36,WNW,301,1.0,1.0,70,0.00,,,0.00,Wunderground v.1.15,2013-02-22 05:55:00,
2013-02-22 01:10:00,24.1,15.7,30.34,WNW,301,0.0,0.0,70,0.00,,,0.00,Wunderground v.1.15,2013-02-22 06:10:00,
2013-02-22 01:20:00,24.1,15.7,30.33,WNW,301,2.0,2.0,70,0.00,,,0.00,Wunderground v.1.15,2013-02-22 06:20:00,
2013-02-22 01:25:00,24.1,15.7,30.32,WNW,301,2.0,2.0,70,0.00,,,0.00,Wunderground v.1.15,2013-02-22 06:25:00,
2013-02-22 01:35:00,24.1,16.1,30.32,NNE,19,3.0,3.0,71,0.00,,,0.00,Wunderground v.1.15,2013-02-22 06:35:00,
2013-02-22 01:45:00,24.1,16.4,30.32,NNE,19,0.0,2.0,72,0.00,,,0.00,Wunderground v.1.15,2013-02-22 06:45:00,
2013-02-22 01:50:00,24.1,16.4,30.32,West,266,1.0,2.0,72,0.00,,,0.00,Wunderground v.1.15,2013-02-22 06:50:00,
2013-02-22 02:05:00,24.1,16.4,30.34,West,266,2.0,2.0,72,0.00,,,0.00,Wunderground v.1.15,2013-02-22 07:05:00,
2013-02-22 02:15:00,24.6,16.5,30.35,West,266,2.0,2.0,71,0.00,,,0.00,Wunderground v.1.15,2013-02-22 07:15:00,
2013-02-22 02:25:00,25.1,16.0,30.36,West,279,2.0,2.0,68,0.00,,,0.00,Wunderground v.1.15,2013-02-22 07:25:00,
2013-02-22 02:40:00,25.3,15.9,30.36,West,277,2.0,2.0,67,0.00,,,0.00,Wunderground v.1.15,2013-02-22 07:40:00,
2013-02-22 02:45:00,25.4,16.0,30.36,West,277,2.0,2.0,67,0.00,,,0.00,Wunderground v.1.15,2013-02-22 07:45:00,
2013-02-22 02:55:00,25.4,15.6,30.36,West,277,1.0,1.0,66,0.00,,,0.00,Wunderground v.1.15,2013-02-22 07:55:00,
2013-02-22 03:05:00,25.4,15.6,30.36,WNW,292,1.0,2.0,66,0.00,,,0.00,Wunderground v.1.15,2013-02-22 08:05:00,
2013-02-22 03:10:00,25.4,15.6,30.36,WNW,292,1.0,1.0,66,0.00,,,0.00,Wunderground v.1.15,2013-02-22 08:10:00,
2013-02-22 03:20:00,25.3,15.9,30.37,WNW,292,1.0,1.0,67,0.00,,,0.00,Wunderground v.1.15,2013-02-22 08:20:00,
2013-02-22 03:30:00,25.1,16.0,30.38,WNW,292,0.0,1.0,68,0.00,,,0.00,Wunderground v.1.15,2013-02-22 08:30:00,
2013-02-22 03:40:00,25.0,16.3,30.39,WNW,292,1.0,1.0,69,0.00,,,0.00,Wunderground v.1.15,2013-02-22 08:40:00,
2013-02-22 03:50:00,24.8,16.4,30.39,WNW,292,1.0,1.0,70,0.00,,,0.00,Wunderground v.1.15,2013-02-22 08:50:00,
2013-02-22 04:00:00,24.7,16.6,30.38,WSW,248,1.0,2.0,71,0.00,,,0.00,Wunderground v.1.15,2013-02-22 09:00:00,
2013-02-22 04:10:00,24.6,16.9,30.36,SE,128,2.0,5.0,72,0.00,,,0.00,Wunderground v.1.15,2013-02-22 09:10:00,
2013-02-22 04:20:00,24.3,16.9,30.38,SSW,194,1.0,2.0,73,0.00,,,0.00,Wunderground v.1.15,2013-02-22 09:20:00,
2013-02-22 04:30:00,24.3,17.2,30.38,SSW,194,2.0,2.0,74,0.00,,,0.00,Wunderground v.1.15,2013-02-22 09:30:00,
2013-02-22 04:40:00,24.3,17.2,30.37,SSW,194,2.0,2.0,74,0.00,,,0.00,Wunderground v.1.15,2013-02-22 09:40:00,
2013-02-22 05:10:00,24.3,16.9,30.36,SSW,194,0.0,0.0,73,0.00,,,0.00,Wunderground v.1.15,2013-02-22 10:10:00,
2013-02-22 05:15:00,24.4,17.0,30.36,SSW,194,0.0,0.0,73,0.00,,,0.00,Wunderground v.1.15,2013-02-22 10:15:00,
2013-02-22 05:25:00,24.4,17.0,30.36,SSW,194,0.0,0.0,73,0.00,,,0.00,Wunderground v.1.15,2013-02-22 10:25:00,
2013-02-22 05:35:00,24.6,16.9,30.35,SSW,194,1.0,1.0,72,0.00,,,0.00,Wunderground v.1.15,2013-02-22 10:35:00,
2013-02-22 05:40:00,24.6,16.9,30.36,SSW,194,1.0,1.0,72,0.00,,,0.00,Wunderground v.1.15,2013-02-22 10:40:00,
2013-02-22 05:50:00,24.8,17.1,30.36,SSW,194,0.0,1.0,72,0.00,,,0.00,Wunderground v.1.15,2013-02-22 10:50:00,
2013-02-22 06:00:00,24.8,17.1,30.36,SSW,194,1.0,1.0,72,0.00,,,0.00,Wunderground v.1.15,2013-02-22 11:00:00,
2013-02-22 06:10:00,25.0,17.2,30.36,SSW,194,1.0,1.0,72,0.00,,,0.00,Wunderground v.1.15,2013-02-22 11:10:00,
2013-02-22 06:20:00,25.0,17.2,30.35,SSW,194,0.0,0.0,72,0.00,,,0.00,Wunderground v.1.15,2013-02-22 11:20:00,
2013-02-22 06:25:00,25.0,17.2,30.35,SSW,194,1.0,2.0,72,0.00,,,0.00,Wunderground v.1.15,2013-02-22 11:25:00,
2013-02-22 06:35:00,25.0,17.6,30.36,SSW,194,2.0,2.0,73,0.00,,,0.00,Wunderground v.1.15,2013-02-22 11:35:00,
2013-02-22 06:45:00,25.1,17.3,30.37,North,350,3.0,3.0,72,0.00,,,0.00,Wunderground v.1.15,2013-02-22 11:45:00,
2013-02-22 06:55:00,25.3,17.9,30.38,North,350,2.0,2.0,73,0.00,,,0.00,Wunderground v.1.15,2013-02-22 11:55:00,
2013-02-22 07:10:00,25.4,17.6,30.38,North,350,1.0,1.0,72,0.00,,,0.00,Wunderground v.1.15,2013-02-22 12:10:00,
2013-02-22 07:15:00,25.4,17.6,30.37,North,350,1.0,2.0,72,0.00,,,0.00,Wunderground v.1.15,2013-02-22 12:15:00,
2013-02-22 07:25:00,25.4,17.6,30.37,North,350,2.0,3.0,72,0.00,,,0.00,Wunderground v.1.15,2013-02-22 12:25:00,
2013-02-22 07:30:00,25.6,17.8,30.38,North,350,2.0,3.0,72,0.00,,,0.00,Wunderground v.1.15,2013-02-22 12:30:00,
2013-02-22 07:40:00,25.7,17.9,30.38,North,350,3.0,3.0,72,0.00,,,0.00,Wunderground v.1.15,2013-02-22 12:40:00,
2013-02-22 07:45:00,25.7,17.9,30.37,North,350,2.0,3.0,72,0.00,,,0.00,Wunderground v.1.15,2013-02-22 12:45:00,
2013-02-22 07:55:00,26.0,17.9,30.37,North,355,2.0,3.0,71,0.00,,,0.00,Wunderground v.1.15,2013-02-22 12:55:00,
2013-02-22 08:05:00,26.3,18.5,30.36,North,355,3.0,3.0,72,0.00,,,0.00,Wunderground v.1.15,2013-02-22 13:05:00,
2013-02-22 08:10:00,26.5,18.7,30.35,North,355,2.0,3.0,72,0.00,,,0.00,Wunderground v.1.15,2013-02-22 13:10:00,
2013-02-22 08:20:00,26.8,18.7,30.35,ENE,57,1.0,1.0,71,0.00,,,0.00,Wunderground v.1.15,2013-02-22 13:20:00,
2013-02-22 08:30:00,27.1,18.3,30.35,ENE,74,2.0,4.0,69,0.00,,,0.00,Wunderground v.1.15,2013-02-22 13:30:00,
2013-02-22 08:35:00,27.4,18.2,30.34,ENE,74,2.0,3.0,68,0.00,,,0.00,Wunderground v.1.15,2013-02-22 13:35:00,
2013-02-22 08:45:00,28.0,18.5,30.34,ENE,74,3.0,3.0,67,0.00,,,0.00,Wunderground v.1.15,2013-02-22 13:45:00,
2013-02-22 08:55:00,28.4,18.5,30.34,ENE,74,1.0,1.0,66,0.00,,,0.00,Wunderground v.1.15,2013-02-22 13:55:00,
2013-02-22 09:05:00,28.7,18.4,30.32,ENE,74,1.0,3.0,65,0.00,,,0.00,Wunderground v.1.15,2013-02-22 14:05:00,
2013-02-22 09:15:00,29.0,18.3,30.32,ENE,74,1.0,1.0,64,0.00,,,0.00,Wunderground v.1.15,2013-02-22 14:15:00,
2013-02-22 09:30:00,29.9,18.5,30.31,ENE,74,1.0,2.0,62,0.00,,,0.00,Wunderground v.1.15,2013-02-22 14:30:00,
2013-02-22 09:40:00,30.3,18.5,30.30,ENE,74,1.0,2.0,61,0.00,,,0.00,Wunderground v.1.15,2013-02-22 14:40:00,
2013-02-22 09:45:00,30.8,18.5,30.30,ENE,74,1.0,1.0,60,0.00,,,0.00,Wunderground v.1.15,2013-02-22 14:45:00,
2013-02-22 09:55:00,31.1,17.6,30.31,SSW,205,4.0,4.0,57,0.00,,,0.00,Wunderground v.1.15,2013-02-22 14:55:00,
2013-02-22 10:00:00,31.2,17.7,30.30,SSW,200,3.0,3.0,57,0.00,,,0.00,Wunderground v.1.15,2013-02-22 15:00:00,
2013-02-22 10:10:00,31.5,17.6,30.30,South,176,4.0,5.0,56,0.00,,,0.00,Wunderground v.1.15,2013-02-22 15:10:00,
2013-02-22 10:25:00,31.4,17.9,30.30,South,180,5.0,5.0,57,0.00,,,0.00,Wunderground v.1.15,2013-02-22 15:25:00,
2013-02-22 10:30:00,31.4,17.5,30.30,SSE,159,4.0,5.0,56,0.00,,,0.00,Wunderground v.1.15,2013-02-22 15:30:00,
2013-02-22 10:35:00,31.4,17.5,30.30,South,175,3.0,3.0,56,0.00,,,0.00,Wunderground v.1.15,2013-02-22 15:35:00,
2013-02-22 10:45:00,31.4,17.5,30.31,SSW,194,5.0,8.0,56,0.00,,,0.00,Wunderground v.1.15,2013-02-22 15:45:00,
2013-02-22 11:00:00,31.2,17.3,30.31,SSW,196,6.0,7.0,56,0.00,,,0.00,Wunderground v.1.15,2013-02-22 16:00:00,
2013-02-22 11:05:00,31.4,17.5,30.32,SE,142,7.0,10.0,56,0.00,,,0.00,Wunderground v.1.15,2013-02-22 16:05:00,
2013-02-22 11:10:00,31.5,17.6,30.32,SSE,157,7.0,7.0,56,0.00,,,0.00,Wunderground v.1.15,2013-02-22 16:10:00,
2013-02-22 11:25:00,31.7,18.6,30.33,SSW,212,5.0,5.0,58,0.00,,,0.00,Wunderground v.1.15,2013-02-22 16:25:00,
2013-02-22 11:35:00,30.8,19.3,30.33,SSW,205,7.0,15.0,62,0.00,,,0.00,Wunderground v.1.15,2013-02-22 16:35:00,
2013-02-22 11:45:00,30.0,19.7,30.33,SSW,196,7.0,7.0,65,0.00,,,0.00,Wunderground v.1.15,2013-02-22 16:45:00,
2013-02-22 11:55:00,29.1,20.2,30.33,South,176,8.0,8.0,69,0.00,,,0.00,Wunderground v.1.15,2013-02-22 16:55:00,
2013-02-22 12:00:00,28.8,20.9,30.32,South,178,8.0,8.0,72,0.00,,,0.00,Wunderground v.1.15,2013-02-22 17:00:00,
2013-02-22 12:10:00,28.5,21.6,30.32,SSW,194,6.0,8.0,75,0.00,,,0.00,Wunderground v.1.15,2013-02-22 17:10:00,
2013-02-22 12:20:00,28.4,22.4,30.32,SSW,198,6.0,7.0,78,0.00,,,0.00,Wunderground v.1.15,2013-02-22 17:20:00,
2013-02-22 12:25:00,28.4,22.7,30.31,South,191,6.0,6.0,79,0.00,,,0.00,Wunderground v.1.15,2013-02-22 17:25:00,
2013-02-22 12:35:00,28.4,23.6,30.31,SSE,166,3.0,4.0,82,0.19,,,0.02,Wunderground v.1.15,2013-02-22 17:35:00,
2013-02-22 12:45:00,28.3,23.2,30.31,South,183,3.0,3.0,81,0.05,,,0.02,Wunderground v.1.15,2013-02-22 17:45:00,
2013-02-22 12:55:00,28.4,23.9,30.30,SE,145,3.0,3.0,83,0.00,,,0.02,Wunderground v.1.15,2013-02-22 17:55:00,
2013-02-22 13:00:00,28.5,24.0,30.29,South,171,3.0,3.0,83,0.00,,,0.02,Wunderground v.1.15,2013-02-22 18:00:00,
2013-02-22 13:10:00,28.5,24.0,30.29,SE,146,3.0,5.0,83,0.00,,,0.03,Wunderground v.1.15,2013-02-22 18:10:00,
2013-02-22 13:20:00,28.5,24.3,30.29,SSE,167,4.0,6.0,84,0.00,,,0.03,Wunderground v.1.15,2013-02-22 18:20:00,
2013-02-22 13:25:00,28.5,24.6,30.28,SSE,149,3.0,3.0,85,0.00,,,0.03,Wunderground v.1.15,2013-02-22 18:25:00,
2013-02-22 13:35:00,28.7,24.8,30.29,South,174,4.0,4.0,85,0.00,,,0.03,Wunderground v.1.15,2013-02-22 18:35:00,
2013-02-22 13:40:00,28.7,24.8,30.29,South,174,4.0,4.0,85,0.00,,,0.03,Wunderground v.1.15,2013-02-22 18:40:00,
2013-02-22 13:55:00,28.8,24.9,30.28,SSE,158,4.0,4.0,85,0.00,,,0.03,Wunderground v.1.15,2013-02-22 18:55:00,
2013-02-22 14:00:00,29.0,25.1,30.28,SSE,158,3.0,3.0,85,0.00,,,0.03,Wunderground v.1.15,2013-02-22 19:00:00,
2013-02-22 14:10:00,29.0,25.1,30.28,SSE,155,3.0,4.0,85,0.00,,,0.03,Wunderground v.1.15,2013-02-22 19:10:00,
2013-02-22 14:15:00,28.8,24.9,30.27,SSE,148,3.0,5.0,85,0.00,,,0.03,Wunderground v.1.15,2013-02-22 19:15:00,
2013-02-22 14:25:00,28.7,24.8,30.27,South,188,4.0,4.0,85,0.00,,,0.03,Wunderground v.1.15,2013-02-22 19:25:00,
2013-02-22 14:30:00,28.7,24.8,30.27,SSE,151,4.0,5.0,85,0.00,,,0.03,Wunderground v.1.15,2013-02-22 19:30:00,
2013-02-22 14:35:00,28.8,24.9,30.27,South,174,3.0,7.0,85,0.00,,,0.03,Wunderground v.1.15,2013-02-22 19:35:00,
2013-02-22 14:45:00,28.8,24.9,30.27,South,169,4.0,4.0,85,0.00,,,0.03,Wunderground v.1.15,2013-02-22 19:45:00,
2013-02-22 14:55:00,29.0,25.1,30.27,South,182,3.0,6.0,85,0.00,,,0.03,Wunderground v.1.15,2013-02-22 19:55:00,
2013-02-22 15:00:00,29.0,25.1,30.27,South,175,3.0,4.0,85,0.00,,,0.03,Wunderground v.1.15,2013-02-22 20:00:00,
2013-02-22 15:10:00,29.1,25.2,30.27,SSE,150,4.0,4.0,85,0.00,,,0.03,Wunderground v.1.15,2013-02-22 20:10:00,
2013-02-22 15:20:00,29.1,25.2,30.27,SSE,168,4.0,5.0,85,0.00,,,0.03,Wunderground v.1.15,2013-02-22 20:20:00,
2013-02-22 15:25:00,29.1,25.2,30.26,SE,130,5.0,6.0,85,0.00,,,0.03,Wunderground v.1.15,2013-02-22 20:25:00,
2013-02-22 15:30:00,29.3,25.4,30.27,SSW,196,5.0,7.0,85,0.00,,,0.03,Wunderground v.1.15,2013-02-22 20:30:00,
2013-02-22 15:40:00,29.3,25.4,30.26,SE,145,5.0,7.0,85,0.00,,,0.03,Wunderground v.1.15,2013-02-22 20:40:00,
2013-02-22 15:50:00,29.3,25.4,30.26,SE,143,5.0,5.0,85,0.00,,,0.03,Wunderground v.1.15,2013-02-22 20:50:00,
2013-02-22 16:20:00,29.4,25.4,30.26,SSE,151,5.0,7.0,85,0.00,,,0.03,Wunderground v.1.15,2013-02-22 21:20:00,
2013-02-22 16:30:00,29.6,25.6,30.25,SE,146,5.0,5.0,85,0.00,,,0.03,Wunderground v.1.15,2013-02-22 21:30:00,
2013-02-22 16:35:00,29.6,25.4,30.25,SSE,161,4.0,7.0,84,0.00,,,0.03,Wunderground v.1.15,2013-02-22 21:35:00,
2013-02-22 16:45:00,29.7,25.7,30.25,SSE,158,5.0,7.0,85,0.00,,,0.03,Wunderground v.1.15,2013-02-22 21:45:00,
2013-02-22 16:50:00,29.7,25.7,30.25,SSE,159,5.0,5.0,85,0.00,,,0.03,Wunderground v.1.15,2013-02-22 21:50:00,
2013-02-22 17:00:00,29.7,25.5,30.25,SSE,156,5.0,5.0,84,0.00,,,0.03,Wunderground v.1.15,2013-02-22 22:00:00,
2013-02-22 17:10:00,29.7,25.5,30.25,SE,141,4.0,5.0,84,0.00,,,0.03,Wunderground v.1.15,2013-02-22 22:10:00,
2013-02-22 17:20:00,29.7,25.5,30.25,SE,128,5.0,7.0,84,0.00,,,0.03,Wunderground v.1.15,2013-02-22 22:20:00,
2013-02-22 17:30:00,29.7,25.5,30.25,SE,146,4.0,5.0,84,0.00,,,0.03,Wunderground v.1.15,2013-02-22 22:30:00,
2013-02-22 17:35:00,29.7,25.5,30.25,SE,133,5.0,6.0,84,0.00,,,0.03,Wunderground v.1.15,2013-02-22 22:35:00,
2013-02-22 17:45:00,29.7,25.2,30.26,SE,138,6.0,6.0,83,0.00,,,0.03,Wunderground v.1.15,2013-02-22 22:45:00,
2013-02-22 17:55:00,29.7,25.5,30.25,SE,142,4.0,4.0,84,0.00,,,0.03,Wunderground v.1.15,2013-02-22 22:55:00,
2013-02-22 18:00:00,29.7,25.5,30.25,South,169,5.0,7.0,84,0.00,,,0.03,Wunderground v.1.15,2013-02-22 23:00:00,
2013-02-22 18:10:00,29.7,25.5,30.25,SSE,165,4.0,4.0,84,0.00,,,0.03,Wunderground v.1.15,2013-02-22 23:10:00,
2013-02-22 18:20:00,29.9,25.7,30.26,South,182,3.0,9.0,84,0.00,,,0.03,Wunderground v.1.15,2013-02-22 23:20:00,
2013-02-22 18:25:00,29.9,25.7,30.25,SE,140,6.0,9.0,84,0.00,,,0.03,Wunderground v.1.15,2013-02-22 23:25:00,
2013-02-22 18:30:00,29.9,25.7,30.25,South,181,5.0,5.0,84,0.00,,,0.03,Wunderground v.1.15,2013-02-22 23:30:00,
2013-02-22 18:35:00,29.9,25.7,30.25,SE,125,4.0,5.0,84,0.00,,,0.03,Wunderground v.1.15,2013-02-22 23:35:00,
2013-02-22 18:40:00,29.9,25.9,30.25,SE,135,5.0,5.0,85,0.00,,,0.03,Wunderground v.1.15,2013-02-22 23:40:00,
2013-02-22 18:55:00,30.0,25.8,30.25,ESE,105,4.0,4.0,84,0.00,,,0.03,Wunderground v.1.15,2013-02-22 23:55:00,
2013-02-22 19:00:00,29.9,25.7,30.24,SE,146,4.0,5.0,84,0.00,,,0.03,Wunderground v.1.15,2013-02-23 00:00:00,
2013-02-22 19:10:00,30.0,25.5,30.24,SE,132,5.0,6.0,83,0.00,,,0.03,Wunderground v.1.15,2013-02-23 00:10:00,
2013-02-22 19:20:00,30.0,25.5,30.24,SSE,159,5.0,5.0,83,0.00,,,0.03,Wunderground v.1.15,2013-02-23 00:20:00,
2013-02-22 19:35:00,30.2,25.4,30.24,SE,141,5.0,5.0,82,0.00,,,0.03,Wunderground v.1.15,2013-02-23 00:35:00,
2013-02-22 19:45:00,30.2,25.4,30.25,SE,137,5.0,7.0,82,0.00,,,0.03,Wunderground v.1.15,2013-02-23 00:45:00,
2013-02-22 19:50:00,30.2,25.4,30.24,SSE,150,5.0,7.0,82,0.00,,,0.03,Wunderground v.1.15,2013-02-23 00:50:00,
2013-02-22 20:05:00,30.2,25.4,30.24,SE,131,4.0,4.0,82,0.00,,,0.03,Wunderground v.1.15,2013-02-23 01:05:00,
2013-02-22 20:10:00,30.2,25.4,30.24,SE,144,4.0,5.0,82,0.00,,,0.03,Wunderground v.1.15,2013-02-23 01:10:00,
2013-02-22 20:25:00,30.3,25.5,30.23,SE,146,5.0,7.0,82,0.00,,,0.03,Wunderground v.1.15,2013-02-23 01:25:00,
2013-02-22 20:35:00,30.3,25.5,30.24,SSE,153,3.0,5.0,82,0.00,,,0.03,Wunderground v.1.15,2013-02-23 01:35:00,
2013-02-22 20:40:00,30.5,25.7,30.24,South,179,3.0,5.0,82,0.00,,,0.03,Wunderground v.1.15,2013-02-23 01:40:00,
2013-02-22 20:45:00,30.5,25.7,30.24,ESE,107,4.0,4.0,82,0.00,,,0.03,Wunderground v.1.15,2013-02-23 01:45:00,
2013-02-22 20:55:00,30.5,25.7,30.23,SE,134,5.0,5.0,82,0.00,,,0.03,Wunderground v.1.15,2013-02-23 01:55:00,
2013-02-22 21:05:00,30.5,25.7,30.23,SE,142,4.0,6.0,82,0.00,,,0.03,Wunderground v.1.15,2013-02-23 02:05:00,
2013-02-22 21:10:00,30.6,25.8,30.23,ESE,113,5.0,6.0,82,0.00,,,0.03,Wunderground v.1.15,2013-02-23 02:10:00,
2013-02-22 21:20:00,30.6,25.8,30.23,SE,130,5.0,6.0,82,0.00,,,0.03,Wunderground v.1.15,2013-02-23 02:20:00,
2013-02-22 21:30:00,30.6,25.8,30.23,SE,139,5.0,6.0,82,0.00,,,0.03,Wunderground v.1.15,2013-02-23 02:30:00,
2013-02-22 21:35:00,30.6,25.8,30.23,SSE,154,4.0,4.0,82,0.00,,,0.03,Wunderground v.1.15,2013-02-23 02:35:00,
2013-02-22 21:40:00,30.6,26.1,30.23,SSE,157,5.0,7.0,83,0.00,,,0.03,Wunderground v.1.15,2013-02-23 02:40:00,
2013-02-22 21:50:00,30.8,26.2,30.22,SE,138,5.0,5.0,83,0.00,,,0.03,Wunderground v.1.15,2013-02-23 02:50:00,
2013-02-22 21:55:00,30.8,26.2,30.22,SE,146,4.0,5.0,83,0.00,,,0.03,Wunderground v.1.15,2013-02-23 02:55:00,
2013-02-22 22:00:00,30.8,26.2,30.22,SE,138,4.0,9.0,83,0.00,,,0.03,Wunderground v.1.15,2013-02-23 03:00:00,
2013-02-22 22:10:00,30.9,26.1,30.22,South,171,6.0,9.0,82,0.00,,,0.03,Wunderground v.1.15,2013-02-23 03:10:00,
2013-02-22 22:20:00,30.9,26.1,30.22,SSE,148,4.0,4.0,82,0.00,,,0.03,Wunderground v.1.15,2013-02-23 03:20:00,
2013-02-22 22:35:00,30.9,26.1,30.22,SE,140,5.0,5.0,82,0.00,,,0.03,Wunderground v.1.15,2013-02-23 03:35:00,
2013-02-22 22:45:00,31.1,26.5,30.22,SE,132,4.0,8.0,83,0.00,,,0.03,Wunderground v.1.15,2013-02-23 03:45:00,
2013-02-22 22:55:00,31.1,26.5,30.22,SSE,150,4.0,8.0,83,0.00,,,0.03,Wunderground v.1.15,2013-02-23 03:55:00,
2013-02-22 23:05:00,30.9,26.3,30.22,SE,133,5.0,5.0,83,0.00,,,0.03,Wunderground v.1.15,2013-02-23 04:05:00,
2013-02-22 23:10:00,30.9,26.3,30.23,SSE,148,4.0,5.0,83,0.00,,,0.03,Wunderground v.1.15,2013-02-23 04:10:00,
2013-02-22 23:20:00,30.9,26.3,30.21,SSE,150,4.0,5.0,83,0.00,,,0.03,Wunderground v.1.15,2013-02-23 04:20:00,
2013-02-22 23:30:00,30.9,26.6,30.21,SE,132,3.0,3.0,84,0.00,,,0.03,Wunderground v.1.15,2013-02-23 04:30:00,
2013-02-22 23:35:00,30.9,26.6,30.21,South,178,3.0,9.0,84,0.00,,,0.03,Wunderground v.1.15,2013-02-23 04:35:00,
2013-02-22 23:45:00,30.8,26.5,30.21,SE,142,4.0,5.0,84,0.00,,,0.03,Wunderground v.1.15,2013-02-23 04:45:00,
2013-02-22 23:55:00,30.8,26.8,30.20,SE,142,4.0,5.0,85,0.00,,,0.03,Wunderground v.1.15,2013-02-23 04:55:00,